Terminal Aerodrome Forecast
Issued by NWS

Current Version | Previous Version | Text Only | Print | Product List | Glossary On
Versions: 1 2 3 4 5 6 7 8 9 10 11 12 13 14 15 16 17 18 19 20 21 22 23 24 25 26 27
067
FTUS41 KOKX 100526
TAFTEB
TAF
KTEB 100526Z 1006/1106 VRB02KT 6SM -SN FEW015 OVC025
      TEMPO 1006/1010 1 1/2SM -SN BKN006 OVC015
     FM101300 29009KT P6SM SCT025 BKN035
     FM101600 27012G21KT P6SM BKN040
     FM110100 29009KT P6SM BKN040=

USA.gov is the U.S. government's official web portal to all federal, state and local government web resources and services.